TimeCDT,TemperatureF,Dew PointF,Humidity,Sea Level PressureIn,VisibilityMPH,Wind Direction,Wind SpeedMPH,Gust SpeedMPH,PrecipitationIn,Events,Conditions,WindDirDegrees,DateUTC
12:15 AM,46.9,41.9,83,30.06,10.0,Calm,Calm,-,N/A,,Clear,0,2013-05-07 05:15:00
12:35 AM,47.8,41.9,80,30.06,10.0,Calm,Calm,-,N/A,,Clear,0,2013-05-07 05:35:00
12:55 AM,46.2,41.4,83,30.06,10.0,Calm,Calm,-,N/A,,Clear,0,2013-05-07 05:55:00
1:15 AM,45.5,41.9,87,30.06,10.0,Calm,Calm,-,N/A,,Clear,0,2013-05-07 06:15:00
1:35 AM,45.5,41.7,87,30.06,10.0,Calm,Calm,-,N/A,,Clear,0,2013-05-07 06:35:00
1:55 AM,45.5,41.9,87,30.06,10.0,Calm,Calm,-,N/A,,Clear,0,2013-05-07 06:55:00
2:15 AM,46.0,42.3,87,30.06,10.0,Calm,Calm,-,N/A,,Clear,0,2013-05-07 07:15:00
2:35 AM,45.0,41.0,86,30.06,10.0,Calm,Calm,-,N/A,,Clear,0,2013-05-07 07:35:00
2:55 AM,42.3,39.9,91,30.06,10.0,Calm,Calm,-,N/A,,Clear,0,2013-05-07 07:55:00
3:15 AM,42.8,40.5,91,30.06,10.0,Calm,Calm,-,N/A,,Clear,0,2013-05-07 08:15:00
3:35 AM,43.3,41.0,91,30.06,10.0,Calm,Calm,-,N/A,,Clear,0,2013-05-07 08:35:00
3:55 AM,42.8,40.3,91,30.05,10.0,Calm,Calm,-,N/A,,Clear,0,2013-05-07 08:55:00
4:15 AM,41.9,39.7,92,30.04,10.0,SE,4.6,-,N/A,,Clear,140,2013-05-07 09:15:00
4:35 AM,44.2,40.1,85,30.05,7.0,West,3.5,-,N/A,,Clear,260,2013-05-07 09:35:00
4:55 AM,42.6,39.6,89,30.05,7.0,Calm,Calm,-,N/A,,Clear,0,2013-05-07 09:55:00
5:15 AM,41.0,39.4,94,30.05,7.0,Calm,Calm,-,N/A,,Clear,0,2013-05-07 10:15:00
5:35 AM,42.3,40.8,95,30.05,5.0,South,3.5,-,N/A,,Clear,170,2013-05-07 10:35:00
5:55 AM,43.7,41.5,92,30.05,3.0,WNW,3.5,-,N/A,,Clear,290,2013-05-07 10:55:00
6:15 AM,41.5,39.7,93,30.05,3.0,Calm,Calm,-,N/A,,Clear,0,2013-05-07 11:15:00
6:35 AM,42.4,41.2,95,30.05,2.5,South,4.6,-,N/A,,Clear,190,2013-05-07 11:35:00
6:55 AM,43.2,42.3,97,30.05,2.0,South,4.6,-,N/A,,Clear,170,2013-05-07 11:55:00
7:15 AM,46.9,45.9,96,30.06,2.5,South,5.8,-,N/A,,Clear,180,2013-05-07 12:15:00
7:35 AM,49.8,47.8,93,30.06,3.0,SW,3.5,-,N/A,,Clear,220,2013-05-07 12:35:00
7:55 AM,51.3,48.4,90,30.06,4.0,South,3.5,-,N/A,,Clear,190,2013-05-07 12:55:00
8:15 AM,53.2,48.9,85,30.06,5.0,South,3.5,-,N/A,,Clear,180,2013-05-07 13:15:00
8:35 AM,56.1,50.0,80,30.06,7.0,South,6.9,-,N/A,,Clear,190,2013-05-07 13:35:00
8:55 AM,59.0,50.0,72,30.06,10.0,SSW,9.2,-,N/A,,Clear,210,2013-05-07 13:55:00
9:15 AM,61.7,49.3,64,30.06,10.0,SSW,12.7,-,N/A,,Clear,210,2013-05-07 14:15:00
9:55 AM,64.2,48.7,57,30.06,10.0,SSW,11.5,-,N/A,,Clear,200,2013-05-07 14:55:00
10:15 AM,64.8,48.7,56,30.05,10.0,SSW,9.2,-,N/A,,Clear,200,2013-05-07 15:15:00
10:35 AM,66.4,46.9,50,30.05,10.0,SSW,10.4,16.1,N/A,,Clear,200,2013-05-07 15:35:00
10:55 AM,67.5,46.2,46,30.05,10.0,South,11.5,16.1,N/A,,Clear,190,2013-05-07 15:55:00
11:15 AM,68.2,46.8,46,30.04,10.0,SSE,8.1,-,N/A,,Clear,160,2013-05-07 16:15:00
11:35 AM,69.4,45.3,42,30.04,10.0,South,9.2,-,N/A,,Scattered Clouds,170,2013-05-07 16:35:00
11:55 AM,68.5,44.6,42,30.04,10.0,SSE,15.0,20.7,N/A,,Clear,160,2013-05-07 16:55:00
12:15 PM,69.4,42.6,38,30.03,10.0,South,11.5,17.3,N/A,,Clear,170,2013-05-07 17:15:00
12:35 PM,69.8,42.6,37,30.03,10.0,SSW,9.2,-,N/A,,Clear,200,2013-05-07 17:35:00
12:55 PM,70.2,41.9,36,30.03,10.0,South,11.5,20.7,N/A,,Clear,190,2013-05-07 17:55:00
1:15 PM,70.7,42.4,36,30.02,10.0,South,12.7,21.9,N/A,,Scattered Clouds,180,2013-05-07 18:15:00
1:35 PM,70.3,42.4,36,30.02,10.0,SSW,9.2,-,N/A,,Scattered Clouds,200,2013-05-07 18:35:00
1:55 PM,71.4,42.4,35,30.02,10.0,South,10.4,18.4,N/A,,Scattered Clouds,190,2013-05-07 18:55:00
2:15 PM,72.5,42.1,33,30.01,10.0,South,17.3,20.7,N/A,,Scattered Clouds,180,2013-05-07 19:15:00
2:35 PM,71.8,42.4,35,30.01,10.0,SSW,9.2,20.7,N/A,,Scattered Clouds,200,2013-05-07 19:35:00
2:55 PM,71.2,42.1,35,30.01,10.0,South,10.4,16.1,N/A,,Scattered Clouds,180,2013-05-07 19:55:00
3:15 PM,70.2,42.1,36,30.01,7.0,SSW,12.7,-,N/A,,Mostly Cloudy,210,2013-05-07 20:15:00
3:35 PM,67.1,44.6,44,30.01,10.0,SW,6.9,-,N/A,Rain,Light Rain,230,2013-05-07 20:35:00
3:55 PM,66.2,46.8,50,30.00,10.0,Calm,Calm,-,N/A,,Overcast,0,2013-05-07 20:55:00
4:15 PM,66.2,47.1,50,30.00,10.0,NW,5.8,-,N/A,,Overcast,310,2013-05-07 21:15:00
4:35 PM,66.7,45.7,47,30.00,10.0,NW,3.5,-,N/A,,Overcast,310,2013-05-07 21:35:00
4:55 PM,67.1,44.4,44,30.00,10.0,West,8.1,-,N/A,,Overcast,280,2013-05-07 21:55:00
5:15 PM,63.7,52.0,66,30.00,10.0,West,10.4,-,N/A,,Overcast,270,2013-05-07 22:15:00
5:35 PM,63.7,52.2,66,29.98,10.0,West,8.1,-,N/A,,Overcast,280,2013-05-07 22:35:00
5:55 PM,63.5,51.6,65,29.98,10.0,West,6.9,-,N/A,,Overcast,280,2013-05-07 22:55:00
6:15 PM,63.5,51.4,65,29.98,10.0,NW,4.6,-,N/A,,Overcast,310,2013-05-07 23:15:00
6:35 PM,63.1,51.4,66,29.98,10.0,Calm,Calm,-,N/A,,Overcast,0,2013-05-07 23:35:00
6:55 PM,63.5,50.5,63,29.97,10.0,Calm,Calm,-,N/A,,Overcast,0,2013-05-07 23:55:00
7:15 PM,64.0,50.5,61,29.96,10.0,ENE,3.5,-,N/A,,Overcast,60,2013-05-08 00:15:00
7:35 PM,63.7,50.4,62,29.96,10.0,East,4.6,-,N/A,,Mostly Cloudy,80,2013-05-08 00:35:00
7:55 PM,63.0,51.3,66,29.96,10.0,East,4.6,-,N/A,,Mostly Cloudy,100,2013-05-08 00:55:00
8:15 PM,61.9,52.0,70,29.96,10.0,ESE,3.5,-,N/A,,Overcast,110,2013-05-08 01:15:00
8:35 PM,61.2,51.8,71,29.96,10.0,ESE,6.9,-,N/A,,Overcast,120,2013-05-08 01:35:00
8:55 PM,61.0,52.0,72,29.96,10.0,SE,5.8,-,N/A,,Overcast,130,2013-05-08 01:55:00
9:15 PM,60.8,51.8,72,29.96,10.0,SE,8.1,-,N/A,,Overcast,130,2013-05-08 02:15:00
9:35 PM,60.1,51.8,74,29.97,10.0,SSE,5.8,-,N/A,,Overcast,150,2013-05-08 02:35:00
9:55 PM,59.9,52.0,75,29.97,10.0,SE,6.9,-,N/A,,Overcast,140,2013-05-08 02:55:00
10:15 PM,59.5,53.1,79,29.97,10.0,SE,15.0,19.6,N/A,,Overcast,130,2013-05-08 03:15:00
10:35 PM,58.5,55.0,88,29.97,10.0,SE,11.5,-,N/A,,Overcast,140,2013-05-08 03:35:00
10:55 PM,58.1,55.0,90,29.97,10.0,SE,10.4,-,N/A,,Overcast,140,2013-05-08 03:55:00
11:15 PM,58.1,54.9,89,29.97,10.0,SE,10.4,-,N/A,,Overcast,140,2013-05-08 04:15:00
11:35 PM,57.7,54.7,90,29.96,10.0,SE,9.2,-,N/A,,Overcast,140,2013-05-08 04:35:00
11:55 PM,57.4,54.7,91,29.96,10.0,SE,9.2,-,N/A,,Overcast,130,2013-05-08 04:55:00